Miscellaneous Local Product
Issued by NWS Hastings, NE

Home | Current Version | Previous Version | Text Only | Print | Product List | Glossary Off
Versions: 1 2 3 4 5 6 7 8 9 10 11 12 13 14 15 16 17 18 19 20 21 22 23 24 25 26 27 28 29 30 31 32 33 34 35 36 37 38 39 40 41 42 43 44 45 46 47 48 49 50

000
AXUS43 KGID 222302
MISGRI

GID CWA HOURLY WEATHER ROUNDUP
NATIONAL WEATHER SERVICE HASTINGS NE
600 PM CDT SAT APR 22 2017

NOTE: "FAIR" INDICATES FEW OR NO CLOUDS BELOW 12,000 FEET WITH NO
SIGNIFICANT WEATHER AND/OR OBSTRUCTIONS TO VISIBILITY.

...SOUTH CENTRAL NEBRASKA...

CITY           SKY/WX    TMP DP  RH WIND       PRES   REMARKS
GRAND ISLAND   SUNNY     65  30  27 NW5       30.22R
HASTINGS       SUNNY     64  27  24 E9        30.21S
KEARNEY        SUNNY     64  27  24 E9        30.22S
ORD            SUNNY     64  27  24 VRB5      30.20F
YORK           SUNNY     63  30  29 N7        30.20S
AURORA         SUNNY     65  28  24 N8        30.21R
LEXINGTON      SUNNY     62  31  30 NE7       30.22S
HOLDREGE       SUNNY     61  26  25 SE3       30.22S
HEBRON         SUNNY     65  27  24 NE7G16    30.19S

...NEBRASKA PANHANDLE...

CITY           SKY/WX    TMP DP  RH WIND       PRES   REMARKS
CHADRON        SUNNY     64  30  27 SW9       30.15F
ALLIANCE       SUNNY     61  28  28 S13       30.18F
SCOTTSBLUFF    MOSUNNY   61  28  28 S15       30.18F
SIDNEY         SUNNY     56  32  40 VRB5      30.23F

...WESTERN AND NORTH CENTRAL NEBRASKA...

CITY           SKY/WX    TMP DP  RH WIND       PRES   REMARKS
VALENTINE      SUNNY     68  21  16 S10       30.18S
AINSWORTH      SUNNY     63  32  30 S9        30.20S
ONEILL         SUNNY     64  29  26 S6        30.21S
BROKEN BOW     SUNNY     63  31  30 SE5       30.21F
IMPERIAL       SUNNY     60  27  28 CALM      30.23F
NORTH PLATTE   SUNNY     63  29  27 E3        30.21F
MCCOOK         SUNNY     64  30  27 E8        30.22S

...EASTERN NEBRASKA...

CITY           SKY/WX    TMP DP  RH WIND       PRES   REMARKS
NORFOLK        SUNNY     65  31  28 NW7       30.19S
SO SIOUX CITY  SUNNY     67  34  29 NW6       30.19S
TEKAMAH        SUNNY     66  31  27 N9        30.19S
COLUMBUS       SUNNY     64  32  29 N6        30.21S
ALBION         SUNNY     65  30  27 CALM      30.21S
OMAHA EPPLEY   MOSUNNY   68  28  22 N8        30.18R
OFFUTT AFB     SUNNY     67  31  27 N8        30.17F
MILLARD        SUNNY     67  32  26 NE5       30.18S
LINCOLN        SUNNY     66  32  28 NE13      30.20S
NEBRASKA CITY  SUNNY     65  18  16 NE13      30.17S
BEATRICE       SUNNY     65  33  30 NE12      30.18S
FALLS CITY     SUNNY     64  29  26 N14G20    30.15S

...NORTHERN KANSAS...

CITY           SKY/WX    TMP DP  RH WIND       PRES   REMARKS
GOODLAND       MOSUNNY   57  31  37 NE7       30.24F
HILL CITY      MOSUNNY   63  28  26 NE3       30.23S
NORTON         CLEAR     61  25  25 CALM      30.22S
PHILLIPSBURG   SUNNY     64  30  27 NE5       30.22S
SMITH CENTER   SUNNY     63  28  27 N7        30.22S
HAYS           MOSUNNY   59  31  34 N9        30.22S
RUSSELL        PTSUNNY   64  31  28 N10       30.19S
CONCORDIA      MOSUNNY   63  34  33 N13G20    30.19R
SALINA         SUNNY     66  33  29 N16       30.18S
TOPEKA         SUNNY     65  34  31 N18G26    30.13R



USA.gov is the U.S. government's official web portal to all federal, state and local government web resources and services.